TimeMST,TemperatureF,Dew PointF,Humidity,Sea Level PressureIn,VisibilityMPH,Wind Direction,Wind SpeedMPH,Gust SpeedMPH,PrecipitationIn,Events,Conditions,WindDirDegrees,DateUTC
12:53 AM,28.0,3.9,36,29.92,10.0,West,10.4,-,N/A,,Clear,260,2014-02-21 07:53:00
1:53 AM,27.0,6.1,41,29.90,10.0,West,17.3,-,N/A,,Clear,260,2014-02-21 08:53:00
2:53 AM,26.1,6.1,43,29.89,10.0,West,12.7,-,N/A,,Clear,260,2014-02-21 09:53:00
3:53 AM,37.0,3.0,24,29.86,10.0,WNW,19.6,29.9,N/A,,Clear,290,2014-02-21 10:53:00
4:53 AM,37.9,5.0,25,29.88,10.0,WNW,21.9,-,N/A,,Clear,300,2014-02-21 11:53:00
5:53 AM,37.0,7.0,29,29.90,10.0,WNW,18.4,-,N/A,,Clear,300,2014-02-21 12:53:00
6:53 AM,37.0,8.1,30,29.94,10.0,NW,19.6,-,N/A,,Clear,320,2014-02-21 13:53:00
7:53 AM,41.0,8.1,26,29.92,10.0,WNW,31.1,40.3,N/A,,Clear,290,2014-02-21 14:53:00
8:53 AM,45.0,8.1,22,29.89,6.0,WNW,38.0,44.9,N/A,,Haze,290,2014-02-21 15:53:00
9:53 AM,48.0,8.1,20,29.91,10.0,WNW,31.1,40.3,N/A,,Clear,300,2014-02-21 16:53:00
10:53 AM,51.1,7.0,17,29.89,10.0,WNW,23.0,29.9,N/A,,Clear,290,2014-02-21 17:53:00
11:53 AM,54.0,3.9,13,29.86,10.0,West,26.5,35.7,N/A,,Clear,280,2014-02-21 18:53:00
12:53 PM,55.9,1.9,11,29.82,10.0,West,28.8,35.7,N/A,,Clear,280,2014-02-21 19:53:00
1:53 PM,55.0,-0.9,10,29.81,10.0,West,25.3,34.5,N/A,,Clear,280,2014-02-21 20:53:00
2:53 PM,57.0,-0.0,10,29.80,10.0,West,21.9,34.5,N/A,,Clear,280,2014-02-21 21:53:00
3:53 PM,55.9,-0.0,10,29.76,10.0,West,24.2,41.4,N/A,,Clear,280,2014-02-21 22:53:00
4:53 PM,53.1,-0.0,11,29.78,10.0,West,25.3,40.3,N/A,,Clear,280,2014-02-21 23:53:00
5:53 PM,50.0,-0.0,13,29.81,10.0,WNW,17.3,-,N/A,,Clear,290,2014-02-22 00:53:00
6:53 PM,46.9,1.9,16,29.83,10.0,WNW,17.3,-,N/A,,Clear,300,2014-02-22 01:53:00
7:53 PM,46.0,3.0,17,29.82,10.0,NW,10.4,-,N/A,,Clear,320,2014-02-22 02:53:00
8:53 PM,46.0,3.9,18,29.81,10.0,WNW,17.3,-,N/A,,Clear,290,2014-02-22 03:53:00
9:53 PM,39.0,5.0,24,29.82,10.0,SSW,6.9,-,N/A,,Clear,210,2014-02-22 04:53:00
10:53 PM,32.0,7.0,35,29.84,10.0,ESE,11.5,-,N/A,,Clear,110,2014-02-22 05:53:00
11:53 PM,30.9,6.1,35,29.83,10.0,SE,6.9,-,N/A,,Clear,130,2014-02-22 06:53:00